Regional Weather Roundup
Issued by NWS Cleveland, OH

Home | Current Version | Previous Version | Text Only | Print | Product List | Glossary Off
Versions: 1 2 3 4 5 6 7 8 9 10 11 12 13 14 15 16 17 18 19 20 21 22 23 24 25 26 27 28 29 30 31 32 33 34 35 36 37 38 39 40 41 42 43 44 45 46 47 48 49 50

000
ASUS41 KCLE 101910
RWRCLE
OHIO REGIONAL WEATHER ROUNDUP
NATIONAL WEATHER SERVICE WILMINGTON, OH
200 PM EST SUN DEC 10 2017

NOTE: "FAIR" INDICATES FEW OR NO CLOUDS BELOW 12,000 FEET WITH NO
SIGNIFICANT WEATHER AND/OR OBSTRUCTIONS TO VISIBILITY.

OHZ001>008-015>018-024>027-034-035-043-044-102000-
   NORTHWEST OHIO

CITY           SKY/WX    TMP DP  RH WIND       PRES   REMARKS
DEFIANCE       CLOUDY    28  18  66 SW13      29.91F WCI  17
FINDLAY        CLOUDY    31  16  54 SW21      29.92F WCI  18
TOLEDO EXPRESS CLOUDY    27  19  72 SW13      29.92F WCI  16
TOLEDO EXEC    CLOUDY    28  17  63 SW23      29.93F WCI  14
LIMA           FAIR      30  20  66 SW17G26   29.92F WCI  18
$$

OHZ009>014-019>023-028>033-038-089-102000-
   NORTHEAST OHIO

CITY           SKY/WX    TMP DP  RH WIND       PRES   REMARKS
CLE-HOPKINS    CLOUDY    28  17  63 SW17G25   29.95F WCI  16
CLE-LAKEFRONT  CLOUDY    29  14  53 SW21G30   29.93F WCI  16
CUY CO. ARPT   CLOUDY    28  16  59 SW17G23   29.93F WCI  16
LORAIN-ELYRIA  CLOUDY    27  15  61 SW17      29.93F WCI  14
ASHTABULA      CLOUDY    29  15  56 SW21G26   29.90F WCI  16
AKRON-CANTON   CLOUDY    29  16  58 SW21G26   29.93F WCI  16
WOOSTER        CLOUDY    27  17  66 SW17G23   29.93F WCI  14
MANSFIELD      PTSUNNY   28  18  66 SW17      29.92F WCI  16
YOUNGSTOWN     CLOUDY    30  17  58 SW18      29.91F WCI  18
$$

OHZ042-051>053-060>062-070>072-077>081-102000-
  SOUTHWEST OHIO

CITY           SKY/WX    TMP DP  RH WIND       PRES   REMARKS
CINC-COVINGTON CLOUDY    33  20  58 SW13G22   30.00F WCI  24
CINC-LUNKEN    CLOUDY    34  20  56 SW14G22   30.05F WCI  25
HAMILTON       CLOUDY    33  19  56 SW13G20   30.02F WCI  24
DAYTON         CLOUDY    29  20  69 S15       29.96F WCI  18
WRIGHT-PAT AFB CLOUDY    30  20  65 S16       29.97F WCI  19
DAYTON GENERAL CLOUDY    30  18  60 SW10      29.97F WCI  21
WILMINGTON     CLOUDY    29  20  69 SW21      29.98F WCI  16
$$

OHZ036-037-039>041-045>050-054>059-063>069-073>076-082>088-102000-
  CENTRAL AND SOUTHEAST OHIO

CITY           SKY/WX    TMP DP  RH WIND       PRES   REMARKS
COLUMBUS       CLOUDY    29  19  66 SW16G25   30.01F WCI  17
OSU AIRPORT    PTSUNNY   29  20  69 SW22      29.98F WCI  15
BOLTON FIELD   CLOUDY    28  19  69 SW15G22   30.01F WCI  17
RICKENBACK AFB CLOUDY    30  20  67 SW14      30.01F WCI  19
NEWARK         PTSUNNY   30  18  60 SW16G22   29.99F WCI  19
MARION         CLOUDY    28  18  66 SW21      29.95F WCI  15
LANCASTER      CLOUDY    30  19  63 S13       30.01F WCI  20
ZANESVILLE     PTSUNNY   31  17  56 SW10      30.01F WCI  22
NEW PHILLY     PTSUNNY   30  17  58 SW12      29.99F WCI  20
$$




USA.gov is the U.S. government's official web portal to all federal, state and local government web resources and services.